EW9282 Weather Reports


time (UTC)temp
C
wind
direction
speed
KPH
gust
KPH
rain 1hr
cm
rain 24hr
cm
rain mn
cm
humidity
%
barometer
mb
20260510100615 10 177 1.6 9.7 0.00 0.08 0.08 93 1007.4
20260510100347 10 193 1.6 9.7 0.00 0.08 0.08 93 1007.4
20260510095846 9 167 1.6 6.4 0.00 0.08 0.08 93 1007.3
20260510095345 9 155 1.6 8.0 0.00 0.08 0.08 93 1007.1
20260510094846 9 150 1.6 8.0 0.00 0.08 0.08 92 1007.0
20260510094116 9 174 3.2 8.0 0.00 0.08 0.08 92 1007.1
20260510093616 9 188 1.6 8.0 0.00 0.08 0.08 92 1007.0
20260510093113 9 129 1.6 8.0 0.00 0.08 0.08 93 1007.0
20260510092613 9 226 1.6 9.7 0.00 0.08 0.08 92 1006.9
20260510092113 9 215 1.6 9.7 0.00 0.08 0.08 92 1006.9
20260510091609 9 238 1.6 9.7 0.00 0.08 0.08 92 1007.0
20260510091108 9 212 1.6 9.7 0.00 0.08 0.08 92 1006.8
20260510090608 9 165 1.6 9.7 0.00 0.08 0.08 92 1006.7
20260510090106 9 171 1.6 9.7 0.00 0.08 0.08 92 1006.5
20260510085607 9 153 3.2 8.0 0.00 0.08 0.08 92 1006.5
20260510085107 9 104 3.2 9.7 0.00 0.08 0.08 92 1006.4
20260510084606 9 217 3.2 11.3 0.00 0.08 0.08 92 1006.4
20260510084335 9 172 3.2 11.3 0.00 0.08 0.08 92 1006.6
20260510083830 9 165 3.2 9.7 0.00 0.08 0.08 92 1006.5
20260510083056 9 172 4.8 12.9 0.00 0.08 0.08 92 1006.5
20260510082557 9 166 4.8 12.9 0.00 0.08 0.08 92 1006.4
20260510082057 9 213 3.2 11.3 0.00 0.08 0.08 92 1006.5
20260510081558 10 158 3.2 12.9 0.00 0.08 0.08 92 1006.5
20260510081057 10 206 3.2 12.9 0.00 0.08 0.08 92 1006.5
20260510080057 10 160 3.2 11.3 0.00 0.08 0.08 92 1006.6
20260510075550 10 153 1.6 9.7 0.03 0.08 0.08 92 1006.6
20260510075051 10 167 3.2 11.3 0.03 0.08 0.08 92 1006.5
20260510074550 10 201 3.2 14.5 0.03 0.08 0.08 92 1006.5
20260510074322 10 216 3.2 14.5 0.03 0.08 0.08 92 1006.4
20260510073551 10 220 3.2 14.5 0.03 0.08 0.08 92 1006.4
20260510073050 10 160 3.2 12.9 0.03 0.08 0.08 92 1006.3
20260510072551 10 220 4.8 14.5 0.03 0.08 0.08 92 1006.3
20260510072322 10 160 3.2 14.5 0.03 0.08 0.08 92 1006.2
20260510071545 10 144 3.2 9.7 0.03 0.08 0.08 92 1006.2
20260510071043 10 137 4.8 14.5 0.03 0.08 0.08 92 1006.1
20260510070544 10 221 6.4 17.7 0.05 0.08 0.08 91 1006.1
20260510070042 10 152 6.4 17.7 0.05 0.08 0.08 91 1006.1
20260510065542 10 133 4.8 12.9 0.03 0.05 0.05 91 1006.1
20260510065043 10 208 4.8 17.7 0.03 0.05 0.05 91 1006.1
20260510064543 10 228 4.8 17.7 0.05 0.05 0.05 91 1006.1
20260510064040 10 146 4.8 14.5 0.05 0.05 0.05 91 1005.9
20260510063811 10 135 4.8 20.9 0.05 0.05 0.05 91 1005.9
20260510063040 10 141 4.8 20.9 0.05 0.05 0.05 91 1005.9
20260510062542 10 158 4.8 12.9 0.05 0.05 0.05 91 1005.9
20260510062312 10 162 6.4 12.9 0.05 0.05 0.05 91 1006.0
20260510061540 10 167 6.4 16.1 0.05 0.05 0.05 91 1006.0
20260510061041 10 219 6.4 16.1 0.05 0.05 0.05 91 1006.0
20260510060035 10 129 6.4 19.3 0.05 0.05 0.05 91 1006.0
20260510055804 10 150 6.4 16.1 0.05 0.05 0.05 90 1006.0
20260510055033 10 126 6.4 16.1 0.05 0.05 0.05 90 1006.0
20260510054804 10 163 4.8 16.1 0.03 0.03 0.03 90 1006.1
20260510054032 10 163 4.8 12.9 0.03 0.03 0.03 89 1006.2
20260510053533 10 139 4.8 17.7 0.00 0.00 0.00 89 1006.3
20260510053033 10 167 6.4 20.9 0.00 0.00 0.00 89 1006.3
20260510052531 10 162 8.0 20.9 0.00 0.00 0.00 89 1006.2
20260510052030 10 142 8.0 20.9 0.00 0.00 0.00 89 1006.2
20260510051530 10 187 8.0 25.7 0.00 0.00 0.00 88 1006.1
20260510051032 10 167 8.0 25.7 0.00 0.00 0.00 88 1006.0
20260510050530 10 186 8.0 33.8 0.00 0.00 0.00 87 1006.0
20260510050030 10 115 8.0 33.8 0.00 0.00 0.00 87 1006.1
20260510045530 10 205 8.0 24.1 0.00 0.00 0.00 86 1006.1
20260510045031 10 175 8.0 19.3 0.00 0.00 0.00 86 1006.2
20260510044525 10 214 9.7 24.1 0.00 0.00 0.00 86 1006.3
20260510044022 10 153 9.7 24.1 0.00 0.00 0.00 87 1006.1
20260510043755 10 198 8.0 22.5 0.00 0.00 0.00 87 1006.0
20260510043022 10 150 6.4 20.9 0.00 0.00 0.00 87 1005.8
20260510042522 10 191 8.0 20.9 0.00 0.00 0.00 87 1005.8
20260510042022 10 214 9.7 22.5 0.00 0.00 0.00 87 1005.6
20260510041523 10 188 8.0 22.5 0.00 0.00 0.00 87 1005.6
20260510041018 10 159 9.7 24.1 0.00 0.00 0.00 87 1005.7
20260510040518 10 145 8.0 24.1 0.00 0.00 0.00 87 1005.7
20260510040249 10 127 6.4 16.1 0.00 0.00 0.00 87 1005.6
20260510035517 10 271 8.0 16.1 0.00 0.00 0.00 88 1005.6
20260510035018 10 200 6.4 16.1 0.00 0.00 0.00 88 1005.7
20260510034517 10 164 6.4 16.1 0.00 0.00 0.00 88 1005.8
20260510034019 10 134 6.4 25.7 0.00 0.00 0.00 88 1005.7
20260510033519 10 166 8.0 25.7 0.00 0.00 0.00 88 1005.8
20260510033017 10 181 9.7 25.7 0.00 0.00 0.00 87 1005.8
20260510032517 10 161 9.7 25.7 0.00 0.00 0.00 88 1005.8
20260510032017 10 146 9.7 22.5 0.00 0.00 0.00 88 1005.9
20260510031517 10 166 8.0 19.3 0.00 0.00 0.00 88 1006.0
20260510031017 10 161 6.4 17.7 0.00 0.00 0.00 88 1006.0
20260510030518 10 274 6.4 17.7 0.00 0.00 0.00 87 1005.9
20260510030248 10 127 6.4 17.7 0.00 0.00 0.00 87 1005.9
20260510025517 10 157 6.4 17.7 0.00 0.00 0.00 87 1006.2
20260510025017 10 161 8.0 24.1 0.00 0.00 0.00 87 1006.3
20260510024517 10 148 9.7 24.1 0.00 0.00 0.00 87 1006.4
20260510024249 10 167 9.7 22.5 0.00 0.00 0.00 87 1006.3
20260510023517 10 210 6.4 22.5 0.00 0.00 0.00 87 1006.5
20260510023249 10 139 6.4 22.5 0.00 0.00 0.00 86 1006.7
20260510022517 10 164 6.4 19.3 0.00 0.00 0.00 86 1006.7
20260510022017 10 149 6.4 17.7 0.00 0.00 0.00 86 1006.8
20260510021518 10 157 4.8 16.1 0.00 0.00 0.00 86 1006.9
20260510021012 10 174 4.8 19.3 0.00 0.00 0.00 86 1006.9
20260510020513 10 176 6.4 19.3 0.00 0.00 0.00 86 1006.9
20260510020013 10 203 6.4 16.1 0.00 0.00 0.00 86 1006.9
20260510015513 10 161 6.4 17.7 0.00 0.00 0.00 86 1006.8
20260510015245 10 264 6.4 17.7 0.00 0.00 0.00 86 1007.1
20260510014509 10 244 8.0 19.3 0.00 0.00 0.00 86 1006.8
20260510014009 10 233 6.4 19.3 0.00 0.00 0.00 86 1006.6
20260510013509 10 149 6.4 20.9 0.00 0.00 0.00 86 1006.6
20260510013240 10 253 9.7 29.0 0.00 0.00 0.00 86 1006.7
20260510012239 10 152 8.0 20.9 0.00 0.00 0.00 86 1006.9
20260510011509 10 155 9.7 22.5 0.00 0.00 0.00 86 1006.8
20260510011009 10 166 9.7 22.5 0.00 0.00 0.00 86 1006.9
20260510010507 10 139 9.7 25.7 0.00 0.00 0.00 85 1006.8
20260510010238 10 165 11.3 29.0 0.00 0.00 0.00 85 1006.8
20260510005507 10 99 11.3 29.0 0.00 0.00 0.00 85 1006.8
20260510005006 10 153 11.3 27.4 0.00 0.00 0.00 85 1006.6
20260510004506 10 105 11.3 27.4 0.00 0.00 0.00 85 1006.8
20260510004008 10 237 9.7 22.5 0.00 0.00 0.00 84 1006.9
20260510003507 10 142 9.7 22.5 0.00 0.00 0.00 84 1006.9
20260510003006 10 179 8.0 22.5 0.00 0.00 0.00 83 1006.8
20260510002506 10 124 8.0 22.5 0.00 0.00 0.00 82 1006.8
20260510001959 10 134 6.4 22.5 0.00 0.00 0.00 82 1006.8
20260510001459 11 145 6.4 20.9 0.00 0.00 0.00 81 1007.0
20260510000959 11 193 8.0 24.1 0.00 0.00 0.00 80 1006.8
20260510000458 11 127 9.7 24.1 0.00 0.00 0.00 80 1006.8
20260509235958 11 157 9.7 20.9 0.00 0.00 0.00 79 1006.8
20260509235458 11 155 9.7 22.5 0.00 0.00 0.00 79 1006.8
20260509234958 11 159 8.0 22.5 0.00 0.00 0.00 78 1006.8
20260509234458 11 165 8.0 19.3 0.00 0.00 0.00 77 1006.8
20260509233953 11 144 9.7 19.3 0.00 0.00 0.00 77 1006.9
20260509233452 11 167 11.3 22.5 0.00 0.00 0.00 76 1006.9
20260509232953 11 170 9.7 25.7 0.00 0.00 0.00 76 1006.8
20260509232451 11 117 9.7 25.7 0.00 0.00 0.00 75 1006.9
20260509231950 11 172 11.3 29.0 0.00 0.00 0.00 75 1007.1
20260509231452 12 133 12.9 29.0 0.00 0.00 0.00 74 1007.2
20260509230949 12 167 11.3 29.0 0.00 0.00 0.00 73 1007.1
20260509230449 12 158 11.3 32.2 0.00 0.00 0.00 72 1007.2
20260509230218 12 224 11.3 32.2 0.00 0.00 0.00 71 1007.2
20260509225447 13 153 11.3 27.4 0.00 0.00 0.00 70 1007.2
20260509224946 13 161 9.7 24.1 0.00 0.00 0.00 71 1007.2
20260509223947 13 295 11.3 30.6 0.00 0.00 0.00 69 1007.3
20260509223447 13 158 11.3 29.0 0.00 0.00 0.00 69 1007.1
20260509222946 13 158 11.3 29.0 0.00 0.00 0.00 68 1007.3
20260509222447 13 153 11.3 24.1 0.00 0.00 0.00 67 1007.2
20260509221943 13 136 11.3 24.1 0.00 0.00 0.00 67 1007.1
20260509221711 13 217 9.7 24.1 0.00 0.00 0.00 67 1007.1
20260509220942 13 200 11.3 24.1 0.00 0.00 0.00 67 1007.1
20260509220440 13 125 11.3 33.8 0.00 0.00 0.00 67 1007.1
20260509215943 13 133 12.9 33.8 0.00 0.00 0.00 67 1007.2
20260509215438 13 233 12.9 32.2 0.00 0.00 0.00 66 1007.2
20260509214942 14 199 12.9 29.0 0.00 0.00 0.00 66 1007.2
20260509214436 14 190 12.9 29.0 0.00 0.00 0.00 66 1007.3
20260509213938 14 171 12.9 25.7 0.00 0.00 0.00 65 1007.3
20260509213437 14 135 11.3 25.7 0.00 0.00 0.00 65 1007.3
20260509213210 14 162 12.9 25.7 0.00 0.00 0.00 65 1007.2
20260509212436 14 148 12.9 30.6 0.00 0.00 0.00 65 1007.2
20260509211937 14 186 12.9 30.6 0.00 0.00 0.00 64 1007.2
20260509211436 14 142 12.9 30.6 0.00 0.00 0.00 64 1007.3
20260509210938 14 191 12.9 30.6 0.00 0.00 0.00 63 1007.2
20260509210434 14 146 14.5 32.2 0.00 0.00 0.00 62 1007.3
20260509205934 14 137 14.5 37.0 0.00 0.00 0.00 61 1007.3
20260509205432 15 176 14.5 37.0 0.00 0.00 0.00 60 1007.5
20260509204935 15 162 11.3 32.2 0.00 0.00 0.00 59 1007.6
20260509204432 15 188 12.9 33.8 0.00 0.00 0.00 59 1007.5
20260509203933 15 148 12.9 33.8 0.00 0.00 0.00 57 1007.4
20260509203432 15 201 12.9 32.2 0.00 0.00 0.00 57 1007.5
20260509202935 15 52 12.9 32.2 0.00 0.00 0.00 57 1007.6
20260509201928 15 120 12.9 27.4 0.00 0.00 0.00 55 1007.6
20260509200929 15 179 9.7 30.6 0.00 0.00 0.00 54 1007.6
20260509200426 15 117 12.9 41.8 0.00 0.00 0.00 54 1007.6
20260509195928 15 128 12.9 41.8 0.00 0.00 0.00 53 1007.7
20260509195426 15 104 12.9 29.0 0.00 0.00 0.00 53 1007.8
20260509195200 15 160 11.3 33.8 0.00 0.00 0.00 53 1007.9
20260509194426 15 105 12.9 33.8 0.00 0.00 0.00 53 1007.9
20260509193929 15 192 12.9 32.2 0.00 0.00 0.00 53 1007.8
20260509193427 15 138 12.9 32.2 0.00 0.00 0.00 54 1007.8
20260509192922 15 121 12.9 35.4 0.00 0.00 0.00 52 1007.8
20260509192419 15 138 14.5 35.4 0.00 0.00 0.00 51 1007.9
20260509192152 15 156 14.5 30.6 0.00 0.00 0.00 51 1007.8
20260509191420 15 205 12.9 30.6 0.00 0.00 0.00 49 1007.8
20260509190922 15 217 12.9 29.0 0.00 0.00 0.00 51 1007.7
20260509190420 16 164 12.9 37.0 0.00 0.00 0.00 51 1007.9
20260509185921 16 183 12.9 37.0 0.00 0.00 0.00 50 1007.9
20260509185420 16 182 14.5 37.0 0.00 0.00 0.00 48 1008.0
20260509184922 16 214 14.5 37.0 0.00 0.00 0.00 45 1008.0
20260509184420 16 129 12.9 25.7 0.00 0.00 0.00 45 1008.1
20260509183920 16 212 12.9 25.7 0.00 0.00 0.00 43 1008.1
20260509183420 16 134 9.7 25.7 0.00 0.00 0.00 43 1008.2
20260509183150 17 145 9.7 27.4 0.00 0.00 0.00 44 1008.3
20260509182421 17 191 8.0 27.4 0.00 0.00 0.00 45 1008.3
20260509181918 17 136 6.4 22.5 0.00 0.00 0.00 43 1008.4
20260509181415 17 158 9.7 22.5 0.00 0.00 0.00 43 1008.4
20260509180918 17 143 9.7 22.5 0.00 0.00 0.00 39 1008.4
20260509180417 17 148 8.0 19.3 0.00 0.00 0.00 40 1008.5
20260509175919 17 192 8.0 20.9 0.00 0.00 0.00 37 1008.7
20260509175642 17 162 9.7 22.5 0.00 0.00 0.00 38 1008.8
20260509174913 17 181 11.3 25.7 0.00 0.00 0.00 38 1008.8
20260509174413 17 228 11.3 25.7 0.00 0.00 0.00 35 1008.9
20260509173913 17 101 8.0 24.1 0.00 0.00 0.00 34 1009.0
20260509173412 17 146 6.4 20.9 0.00 0.00 0.00 35 1009.1
20260509172913 17 140 8.0 20.9 0.00 0.00 0.00 37 1009.1
20260509172412 17 164 8.0 20.9 0.00 0.00 0.00 33 1009.2
20260509171913 16 192 9.7 29.0 0.00 0.00 0.00 35 1009.3
20260509171642 16 169 11.3 29.0 0.00 0.00 0.00 33 1009.3
20260509170913 16 103 9.7 24.1 0.00 0.00 0.00 34 1009.3
20260509170412 16 152 9.7 24.1 0.00 0.00 0.00 32 1009.4
20260509165913 16 146 9.7 22.5 0.00 0.00 0.00 32 1009.6
20260509165407 15 141 9.7 22.5 0.00 0.00 0.00 35 1009.7
20260509164910 15 155 11.3 22.5 0.00 0.00 0.00 36 1009.7
20260509164640 15 174 9.7 25.7 0.00 0.00 0.00 35 1009.8
20260509164141 15 179 9.7 25.7 0.00 0.00 0.00 34 1009.8
20260509163407 16 140 9.7 25.7 0.00 0.00 0.00 36 1009.8
20260509162909 16 143 9.7 25.7 0.00 0.00 0.00 35 1009.8
20260509162409 16 160 9.7 25.7 0.00 0.00 0.00 40 1009.8
20260509161909 16 92 11.3 25.7 0.00 0.00 0.00 37 1010.0
20260509161408 16 182 11.3 22.5 0.00 0.00 0.00 36 1010.1
20260509160910 16 174 9.7 22.5 0.00 0.00 0.00 36 1010.1
20260509160637 16 136 9.7 22.5 0.00 0.00 0.00 36 1010.0
20260509155908 15 338 11.3 22.5 0.00 0.00 0.00 38 1010.2
20260509155405 15 148 9.7 22.5 0.00 0.00 0.00 38 1010.3
20260509154907 15 146 8.0 20.9 0.00 0.00 0.00 40 1010.3
20260509154406 15 150 9.7 24.1 0.00 0.00 0.00 42 1010.5
20260509154140 15 146 9.7 24.1 0.00 0.00 0.00 42 1010.5
20260509153403 15 170 8.0 17.7 0.00 0.00 0.00 40 1010.5
20260509152905 15 172 8.0 25.7 0.00 0.00 0.00 43 1010.7
20260509152633 15 111 8.0 25.7 0.00 0.00 0.00 40 1010.8
20260509151902 15 152 6.4 19.3 0.00 0.00 0.00 42 1010.8
20260509151402 15 115 6.4 17.7 0.00 0.00 0.00 43 1010.9
20260509151132 15 135 6.4 20.9 0.00 0.00 0.00 44 1010.9
20260509150359 14 206 8.0 20.9 0.00 0.00 0.00 46 1010.9
20260509145357 14 153 9.7 19.3 0.00 0.00 0.00 45 1011.0
20260509144859 13 141 9.7 20.9 0.00 0.00 0.00 46 1011.0
20260509144355 13 143 11.3 25.7 0.00 0.00 0.00 46 1011.0
20260509143857 13 175 9.7 25.7 0.00 0.00 0.00 47 1011.1
20260509143355 13 151 9.7 27.4 0.00 0.00 0.00 46 1011.1
20260509142858 13 162 9.7 27.4 0.00 0.00 0.00 48 1011.1
20260509142355 13 150 9.7 22.5 0.00 0.00 0.00 48 1011.2
20260509141857 12 172 11.3 25.7 0.00 0.00 0.00 48 1011.2
20260509141356 12 118 11.3 25.7 0.00 0.00 0.00 48 1011.2
20260509140857 12 219 8.0 19.3 0.00 0.00 0.00 50 1011.3
20260509140354 12 187 6.4 17.7 0.00 0.00 0.00 53 1011.4
20260509135852 12 172 6.4 19.3 0.00 0.00 0.00 51 1011.3
20260509135351 13 234 6.4 19.3 0.00 0.00 0.00 53 1011.3
20260509134847 12 134 6.4 17.7 0.00 0.00 0.00 53 1011.2
20260509134348 12 158 6.4 17.7 0.00 0.00 0.00 53 1011.2
20260509133847 12 239 6.4 17.7 0.00 0.00 0.00 53 1011.2
20260509133348 12 145 6.4 14.5 0.00 0.00 0.00 53 1011.3
20260509132846 12 158 4.8 17.7 0.00 0.03 0.00 54 1011.3
20260509132346 12 155 6.4 17.7 0.00 0.03 0.00 53 1011.4
20260509131845 11 250 6.4 17.7 0.00 0.03 0.00 54 1011.5
20260509131346 11 142 6.4 16.1 0.00 0.03 0.00 55 1011.5
20260509130845 11 136 6.4 14.5 0.00 0.03 0.00 57 1011.6
20260509130344 11 169 6.4 17.7 0.00 0.03 0.00 58 1011.6
20260509125845 11 249 8.0 17.7 0.00 0.03 0.00 58 1011.6
20260509125346 10 150 8.0 24.1 0.00 0.03 0.00 59 1011.6
20260509124841 10 142 9.7 24.1 0.00 0.03 0.00 58 1011.6
20260509124340 10 130 8.0 17.7 0.00 0.03 0.00 57 1011.7
20260509123841 11 160 8.0 19.3 0.00 0.03 0.00 57 1011.6
20260509123337 11 160 6.4 19.3 0.00 0.03 0.00 60 1011.6
20260509122837 11 165 4.8 17.7 0.00 0.03 0.00 58 1011.7
20260509122338 11 224 4.8 17.7 0.00 0.03 0.00 57 1011.7
20260509121838 10 217 4.8 17.7 0.00 0.03 0.00 58 1011.8
20260509121333 10 163 3.2 12.9 0.00 0.03 0.00 60 1011.8
20260509120833 10 154 3.2 9.7 0.00 0.03 0.00 62 1011.8
20260509120332 10 194 4.8 12.9 0.00 0.03 0.00 60 1011.8
20260509115831 9 222 4.8 12.9 0.00 0.03 0.00 64 1011.9
20260509115331 9 138 6.4 17.7 0.00 0.03 0.00 64 1011.9
20260509114831 9 149 6.4 17.7 0.00 0.03 0.00 64 1011.8
20260509114331 9 155 4.8 14.5 0.00 0.03 0.00 64 1011.7
20260509113832 8 149 3.2 11.3 0.00 0.03 0.00 66 1011.6
20260509113329 8 146 3.2 11.3 0.00 0.03 0.00 67 1011.7
20260509112830 8 195 3.2 11.3 0.00 0.03 0.00 66 1011.6
20260509112559 8 276 4.8 11.3 0.00 0.03 0.00 67 1011.7
20260509111829 8 150 3.2 9.7 0.00 0.03 0.00 69 1011.7
20260509111330 7 168 3.2 9.7 0.00 0.03 0.00 70 1011.7
20260509110829 7 171 3.2 9.7 0.00 0.03 0.00 72 1011.8
20260509110325 7 150 3.2 8.0 0.00 0.03 0.00 73 1011.8
20260509105825 6 169 3.2 9.7 0.00 0.03 0.00 74 1011.8
20260509105326 6 135 3.2 9.7 0.00 0.03 0.00 75 1011.8
20260509104826 6 148 1.6 9.7 0.00 0.03 0.00 77 1011.8
20260509103825 5 231 3.2 9.7 0.00 0.03 0.00 78 1011.7
20260509103555 4 138 1.6 8.0 0.00 0.03 0.00 80 1011.7
20260509103057 4 159 1.6 8.0 0.00 0.03 0.00 80 1011.6
20260509102325 3 169 1.6 8.0 0.00 0.03 0.00 81 1011.5
20260509101556 3 167 1.6 8.0 0.00 0.03 0.00 81 1011.4